Weather History for Olive Branch, MS

Change the Weather History Date:

Tuesday, January 29, 2013

  Actual Average (KMEM) Record (KMEM)
Temperature  
Mean Temperature 65 °F 42 °F  
Max Temperature 73 °F 51 °F 76 °F (1950)
Min Temperature 57 °F 33 °F 5 °F (1966)
Degree Days  
Heating Degree Days 0 23  
Month to date heating degree days 692  
Since 1 July heating degree days 1856  
Cooling Degree Days 0 0  
Month to date cooling degree days 0  
Year to date cooling degree days 0  
Growing Degree Days 15 (Base 50)    
Moisture  
Dew Point 62 °F    
Average Humidity 93    
Maximum Humidity 100    
Minimum Humidity 65    
Precipitation  
Precipitation 0.06 in 0.13 in 2.47 in (1939)
Month to date precipitation 3.71  
Year to date precipitation 3.71  
Snow  
Snow 0.00 in 0.10 in 2.50 in (1966)
Month to date snowfall 1.8  
Since 1 July snowfall 2.0  
Snow Depth -    
Sea Level Pressure  
Sea Level Pressure 29.84 in    
Wind  
Wind Speed 13 mph (SSE)    
Max Wind Speed 31 mph    
Max Gust Speed 45 mph    
Visibility 8 miles    
Events      
T = Trace of Precipitation, MM = Missing Value Source: NWS Daily Summary

Daily Weather History Graph

Daily Weather History Graph

Search for Another Location

Airport:

Trip Planner

Search our weather history database for the weather conditions in past years. The results will help you decide how hot, cold, wet, or windy it might be!

Date:

Astronomy

Jan. 29, 2013 Rise Set
Actual Time 6:59 AM CST 5:25 PM CST
Civil Twilight 6:33 AM CST 5:51 PM CST
Nautical Twilight 6:02 AM CST 6:22 PM CST
Astronomical Twilight 5:32 AM CST 6:52 PM CST
Moon 8:12 PM CST (1/29) 8:04 AM CST (1/29)
Length of Visible Light 11h 18m
Length of Day
10h 25m
Waning Gibbous, 93% of the Moon is Illuminated
Jan 29
Waning Gibbous
Feb 3
Last Quarter
Feb 10
New
Feb 17
First Quarter
Feb 25
Full

Hourly Weather History & Observations

Time (CST) Temp. Dew Point Humidity Pressure Visibility Wind Dir Wind Speed Gust Speed Precip Events Conditions
12:15 AM 59.0 °F 59.0 °F 100% 30.07 in 10.0 mi SSE 10.4 mph 19.6 mph 0.00 in   Clear
12:35 AM 59.0 °F 59.0 °F 100% 30.07 in 10.0 mi SSE 8.1 mph - 0.00 in   Clear
12:55 AM 59.0 °F 59.0 °F 100% 30.07 in 7.0 mi SSE 10.4 mph - 0.00 in   Partly Cloudy
1:15 AM 57.2 °F 57.2 °F 100% 30.06 in 10.0 mi SSE 6.9 mph - 0.00 in   Scattered Clouds
1:35 AM 59.0 °F 59.0 °F 100% 30.05 in 9.0 mi SSE 10.4 mph - 0.00 in   Mostly Cloudy
1:55 AM 57.2 °F 57.2 °F 100% 30.04 in 9.0 mi SSE 10.4 mph - 0.00 in   Scattered Clouds
2:15 AM 57.2 °F 57.2 °F 100% 30.04 in 7.0 mi SSE 11.5 mph - 0.00 in   Clear
2:35 AM 57.2 °F 57.2 °F 100% 30.03 in 8.0 mi SSE 11.5 mph - 0.00 in   Clear
2:55 AM 57.2 °F 57.2 °F 100% 30.02 in 7.0 mi SSE 11.5 mph - 0.00 in   Clear
3:15 AM 57.2 °F 57.2 °F 100% 30.02 in 6.0 mi SSE 11.5 mph - 0.00 in   Mostly Cloudy
3:35 AM 57.2 °F 57.2 °F 100% 30.01 in 5.0 mi SSE 10.4 mph - 0.00 in   Scattered Clouds
3:55 AM 57.2 °F 57.2 °F 100% 30.00 in 7.0 mi SSE 8.1 mph - 0.00 in   Mostly Cloudy
4:15 AM 57.2 °F 57.2 °F 100% 30.00 in 7.0 mi SSE 8.1 mph - 0.00 in   Overcast
4:35 AM 59.0 °F 59.0 °F 100% 30.00 in 5.0 mi South 9.2 mph - 0.00 in   Overcast
4:55 AM 59.0 °F 59.0 °F 100% 30.01 in 5.0 mi South 10.4 mph - 0.00 in   Overcast
5:15 AM 59.0 °F 59.0 °F 100% 30.02 in 5.0 mi South 12.7 mph - 0.00 in   Overcast
5:35 AM 59.0 °F 59.0 °F 100% 30.02 in 8.0 mi South 11.5 mph - 0.00 in   Overcast
5:55 AM 60.8 °F 60.8 °F 100% 30.03 in 8.0 mi South 11.5 mph - 0.00 in   Overcast
6:50 AM 60.8 °F 60.8 °F 100% 30.03 in 8.0 mi South 9.2 mph - N/A   Overcast
7:50 AM 60.8 °F 60.8 °F 100% 30.02 in 8.0 mi SSE 10.4 mph - N/A   Overcast
8:50 AM 62.6 °F 62.6 °F 100% 29.98 in 9.0 mi South 11.5 mph 20.7 mph N/A   Overcast
9:50 AM 64.4 °F 64.4 °F 100% 29.97 in 10.0 mi South 13.8 mph 23.0 mph N/A   Overcast
10:55 AM 66.2 °F 64.4 °F 94% 29.93 in 10.0 mi South 19.6 mph 27.6 mph N/A   Mostly Cloudy
12:50 PM 71.6 °F 62.6 °F 73% 29.84 in 10.0 mi South 19.6 mph 28.8 mph N/A   Mostly Cloudy
2:50 PM 71.6 °F 60.8 °F 69% 29.75 in 10.0 mi South 16.1 mph 23.0 mph N/A   Mostly Cloudy
3:45 PM 73.4 °F 60.8 °F 65% 29.73 in 10.0 mi South 15.0 mph 20.7 mph N/A   Mostly Cloudy
4:50 PM 71.6 °F 60.8 °F 69% 29.72 in 10.0 mi South 13.8 mph 28.8 mph N/A   Mostly Cloudy
6:50 PM 71.6 °F 62.6 °F 73% 29.65 in 10.0 mi South 17.3 mph 25.3 mph N/A   Overcast
7:50 PM 71.6 °F 62.6 °F 73% 29.60 in 10.0 mi South 23.0 mph 35.7 mph N/A   Scattered Clouds
8:15 PM 71.6 °F 64.4 °F 78% 29.61 in 10.0 mi SSE 24.2 mph 35.7 mph 0.00 in   Clear
8:35 PM 69.8 °F 66.2 °F 88% 29.62 in 4.0 mi SSE 24.2 mph 42.6 mph 0.01 in   Mostly Cloudy
8:55 PM 68.0 °F 66.2 °F 94% 29.62 in 5.0 mi SSE 20.7 mph 32.2 mph 0.03 in   Mostly Cloudy
9:15 PM 68.0 °F 66.2 °F 94% 29.58 in 9.0 mi SSE 18.4 mph 26.5 mph 0.00 in   Mostly Cloudy
9:35 PM 68.0 °F 66.2 °F 94% 29.57 in 10.0 mi SSE 20.7 mph 31.1 mph 0.00 in   Scattered Clouds
9:55 PM 68.0 °F 66.2 °F 94% 29.54 in 9.0 mi SSE 19.6 mph 31.1 mph 0.00 in   Partly Cloudy
10:15 PM 68.0 °F 66.2 °F 94% 29.53 in 10.0 mi SSE 21.9 mph 29.9 mph 0.00 in   Clear
10:35 PM 69.8 °F 66.2 °F 88% 29.52 in 9.0 mi South 28.8 mph 40.3 mph 0.00 in   Clear
10:55 PM 69.8 °F 66.2 °F 88% 29.52 in 9.0 mi South 28.8 mph 41.4 mph 0.00 in   Scattered Clouds
11:15 PM 68.0 °F 66.2 °F 94% 29.50 in 5.0 mi South 24.2 mph 39.1 mph 0.02 in   Mostly Cloudy
11:35 PM 68.0 °F 66.2 °F 94% 29.49 in 8.0 mi South 31.1 mph 44.9 mph 0.03 in   Overcast
11:55 PM 68.0 °F 66.2 °F 94% 29.51 in 7.0 mi South 18.4 mph 31.1 mph 0.03 in   Overcast